Regional Weather Roundup
Issued by NWS

Home | Current Version | Previous Version | Graphics & Text | Print | Product List | Glossary On
Versions: 1 2 3 4 5 6 7 8 9 10 11 12 13 14 15 16 17 18 19 20 21 22 23 24 25 26 27 28 29 30 31 32 33 34 35 36 37 38 39 40 41 42 43 44 45 46 47 48 49 50
695
ASUS45 KABQ 082310
RWRNM
NEW MEXICO REGIONAL WEATHER ROUNDUP
NATIONAL WEATHER SERVICE ALBUQUERQUE NM
400 PM MST MON FEB 08 2016

NOTE: "FAIR" MEANS FEW OR NO CLOUDS BELOW 12,000 FEET AGL WITH NO
       SIGNIFICANT WEATHER OR OBSTRUCTIONS TO VISION.

      THIS PRODUCT IS RELEASED AS TWO VERSIONS.  ONE VERSION NEAR
      THE TOP OF THE HOUR CONTAINING PRELIMINARY DATA FROM ALBUQUERQUE
      AND OTHER STATIONS.  A FINAL VERSION WITH ADDITIONAL DATA IS
      ISSUED ABOUT 10 MINUTES AFTER THE HOUR.

NMZ501-503-504-510>518-090000-
NORTHWEST PLATEAU/NORTHCENTRAL MOUNTAINS

CITY           SKY/WX    TMP DP  RH WIND       PRES   REMARKS
FARMINGTON     SUNNY     51  22  31 NW5       30.37F
LOS ALAMOS     SUNNY     49  15  26 N9        30.37F
SANTA FE       CLOUDY    57  15  19 N12       30.32F
TAOS           SUNNY     46  19  34 N15       30.36F
ANGEL FIRE     FAIR      42  20  42 SW9       30.38S

$$
NMZ402-403-502-505>509-090000-
WESTCENTRAL MOUNTAINS/SOUTHWEST MOUNTAINS

CITY           SKY/WX    TMP DP  RH WIND       PRES   REMARKS
GALLUP         SUNNY     55  21  26 E12       30.41S
GRANTS         SUNNY     53  17  24 N16G24    30.42S
SILVER CITY      N/A     61  16  17 S9        30.33S

$$
NMZ407-409-411-412-090000-
SOUTHERN DESERTS

CITY           SKY/WX    TMP DP  RH WIND       PRES   REMARKS
LORDSBURG      FAIR      64  18  16 SE14G21   30.27S
DEMING         SUNNY     63  16  16 E6        30.29F
LAS CRUCES     SUNNY     60  17  18 CALM      30.32R
HOLLOMAN AFB   SUNNY     60  18  19 VRB2      30.29F
ALAMOGORDO     SUNNY     59  16  18 CALM      30.31S
T OR C         SUNNY     61  14  16 CALM      30.29F

$$
NMZ519>523-090000-
CENTRAL VALLEYS/CENTRAL HIGHLANDS

CITY           SKY/WX    TMP DP  RH WIND       PRES   REMARKS
ALBUQUERQUE    MOSUNNY   57  18  21 N16       30.34S
DOUBLE EAGLE   MOSUNNY   55  21  26 NW12G17   30.35F
MORIARTY ARPT  FAIR      57  11  16 N3        30.35S
CLINES CORNERS SUNNY     51  20  29 NW8       30.34S
BELEN          FAIR      60  13  16 N9        30.33S
SOCORRO        FAIR      61  14  15 N13       30.31S

$$
NMZ524>526-539-540-090000-
SOUTHCENTRAL MOUNTAINS

CITY           SKY/WX    TMP DP  RH WIND       PRES   REMARKS
RUIDOSO          N/A     55  10  16 CALM      30.37R

$$
NMZ527>531-090000-
NORTHEAST HIGHLANDS/NORTHEAST PLAINS

CITY           SKY/WX    TMP DP  RH WIND       PRES   REMARKS
LAS VEGAS      CLOUDY    44  19  36 S10       30.36S
RATON          SUNNY     51  19  28 SW10      30.30F
CLAYTON        SUNNY     50  19  29 N16       30.33S

$$
NMZ532>537-090000-
EASTCENTRAL PLAINS

CITY           SKY/WX    TMP DP  RH WIND       PRES   REMARKS
TUCUMCARI      SUNNY     53  15  22 CALM      30.33F
CANNON AFB     SUNNY     51  15  24 CALM      30.34F
CLOVIS AIRPORT SUNNY     50  18  27 W7        30.36S

$$
NMZ028-029-538-090000-
SOUTHEAST PLAINS

CITY           SKY/WX    TMP DP  RH WIND       PRES   REMARKS
ROSWELL        SUNNY     51  16  24 VRB3      30.37S
ARTESIA        SUNNY     52  14  22 SE12      30.37S
CARLSBAD       SUNNY     51  12  21 SE9       30.37R
HOBBS          SUNNY     50  10  20 CALM      30.37F


$$




USA.gov is the U.S. government's official web portal to all federal, state and local government web resources and services.